Theta_e
304 305 305 305 306 307 308 308 308 308 308 309 309 309 308 308 308 306 305 304 302 302 301 300 300 300 299 299 298 296 295 294 291 296 298 298 288 287 287 288 288 288 290
300 301 300 301 302 302 301 302 302 303 303 303 303 304 305 305 305 305 304 304 303 301 301 299 299 299 298 299 297 295 294 294 293 291 295 295 287 287 288 285 286 287 287
297 297 297 297 297 297 297 297 298 299 300 300 299 300 301 301 302 302 302 302 302 302 302 300 299 298 296 297 296 296 295 294 294 292 292 295 287 284 284 285 285 285 286
296 296 295 294 295 295 295 295 295 295 295 296 296 296 296 296 296 297 295 297 298 299 300 300 299 297 296 296 295 295 294 293 292 291 291 291 287 284 284 283 281 283 283
293 293 292 293 293 293 292 292 292 292 292 292 292 293 294 294 293 294 294 293 294 294 295 295 296 295 293 295 295 295 294 292 291 290 290 290 289 279 280 283 282 283 282
289 288 288 288 288 288 289 289 290 290 290 291 291 291 291 290 290 291 292 292 291 290 290 292 293 290 291 292 294 295 295 293 289 290 290 289 289 289 285 283 281 279 277
287 286 285 285 285 285 286 286 287 287 288 289 290 290 290 291 290 290 290 291 290 290 290 290 290 290 289 291 292 293 293 294 295 293 289 290 290 290 288 283 281 281 280
284 283 283 283 282 283 283 283 284 285 286 286 287 287 287 288 289 289 289 290 290 290 290 289 289 289 290 289 289 288 288 289 290 291 292 293 293 292 289 287 284 282 283
281 281 281 281 279 280 279 281 282 283 284 284 285 285 285 286 288 288 288 289 288 288 289 289 289 288 289 289 287 286 287 287 290 292 292 293 294 295 292 286 282 280 278
277 277 278 278 276 276 278 279 281 281 282 283 283 284 284 284 286 287 288 288 286 286 288 288 287 286 288 289 287 286 285 286 287 287 287 288 290 290 292 286 285 280 280
275 275 275 274 274 276 277 277 278 280 280 281 281 283 284 285 285 287 287 287 286 285 285 285 286 288 289 289 289 287 286 288 287 287 286 286 286 286 286 285 285 283 281
271 271 270 271 272 274 274 276 277 279 280 281 282 283 285 286 285 286 287 287 287 285 285 285 286 287 288 288 288 289 290 290 287 286 285 285 284 284 284 285 285 284 285
267 267 269 270 271 272 272 273 275 277 279 280 281 282 283 284 286 286 287 288 288 286 286 287 288 288 287 286 287 288 287 286 285 284 284 284 286 286 285 285 284 283 284
266 267 269 269 269 271 272 273 273 274 275 276 277 279 280 282 283 285 285 285 285 285 286 286 286 286 286 286 285 285 286 285 285 284 284 286 286 284 283 283 281 280 280
265 267 268 269 269 269 271 271 272 274 275 274 276 277 277 278 281 284 285 284 285 286 286 285 284 284 284 284 284 284 284 285 284 284 284 284 283 282 282 281 280 279 277
264 266 267 266 268 268 269 270 273 274 275 276 277 277 278 280 282 283 285 285 286 286 284 284 284 285 283 283 283 283 283 283 284 284 284 283 282 280 279 279 279 278 276
262 264 265 265 266 267 267 267 267 270 273 274 275 276 278 279 281 282 284 284 285 285 283 284 284 284 283 283 283 282 282 283 284 283 283 282 281 280 278 278 277 278 276
260 261 263 265 265 265 266 266 266 266 266 268 273 275 277 279 280 281 283 283 282 284 284 284 284 284 283 283 282 282 282 283 282 282 282 281 281 280 278 277 277 277 276
262 264 263 264 265 264 265 266 267 267 268 269 271 274 275 276 278 280 283 282 281 281 283 284 284 284 283 282 282 282 282 282 282 281 281 280 280 280 278 278 278 277 277
262 261 262 263 264 264 265 266 266 267 267 268 268 269 270 272 271 271 273 274 276 277 280 284 284 284 283 283 283 282 282 282 281 281 281 280 280 280 278 278 278 277 277
262 262 261 263 263 264 264 264 265 265 266 266 266 268 272 267 267 268 268 269 269 269 270 272 275 282 283 283 283 282 282 282 281 281 281 281 280 279 279 278 278 277 277
261 261 262 262 262 263 263 264 264 264 264 264 265 266 269 266 266 266 266 266 267 267 267 268 269 271 272 273 275 280 282 281 282 281 281 281 280 280 279 278 277 277 276
261 261 261 261 262 261 262 263 263 263 263 264 264 264 264 264 264 264 265 265 266 266 266 266 266 266 267 269 270 271 272 275 278 281 281 280 280 280 279 278 278 277 275
259 260 260 260 261 260 261 261 262 261 262 262 263 263 263 263 263 263 263 264 264 265 265 264 264 264 265 267 269 270 270 270 272 274 277 280 279 279 279 278 277 276 274
258 258 259 259 259 259 259 260 260 261 261 261 262 262 262 262 262 263 263 263 263 263 263 263 263 263 264 265 266 269 270 269 268 269 272 274 274 275 275 274 274 273 271
257 257 257 258 258 258 258 259 259 259 259 260 261 261 261 261 262 262 262 262 261 262 263 263 263 262 263 264 266 268 270 271 269 267 269 270 271 271 271 271 270 270 269
Wind_Speed
9 8 8 7 6 6 5 4 3 2 1 1 2 3 4 6 5 5 6 7 10 10 9 10 13 12 9 9 9 9 10 10 15 11 10 8 7 10 9 11 12 13 13
9 9 9 8 8 7 6 5 4 4 3 3 2 3 4 6 7 8 9 6 8 9 10 10 12 8 12 11 9 11 11 12 11 20 12 9 10 9 10 10 10 11 12
9 10 10 10 9 9 7 7 6 5 5 4 4 4 5 7 7 8 8 8 9 10 10 11 12 11 12 10 10 10 10 11 12 13 14 9 6 3 6 7 9 10 10
9 10 10 10 9 8 8 8 7 6 6 6 5 4 5 6 6 7 7 9 10 10 10 11 11 11 13 12 11 13 12 11 10 12 13 11 6 4 6 5 8 9 10
9 10 9 8 8 8 8 8 7 7 6 5 6 6 6 6 4 7 7 9 9 10 10 11 12 12 14 15 10 12 12 11 11 11 12 11 9 5 7 6 9 7 8
9 9 7 7 6 6 6 5 5 4 4 4 4 5 6 4 8 10 9 9 9 9 11 11 11 11 14 20 23 25 20 14 14 12 13 14 15 11 9 9 8 5 6
8 7 7 7 7 7 7 6 5 6 6 7 7 7 9 9 11 13 12 8 10 11 13 11 11 8 10 14 19 23 23 26 27 18 18 19 17 12 11 10 11 10 9
8 8 9 10 9 10 10 10 10 9 10 9 9 8 8 9 13 15 13 10 10 12 12 12 13 13 12 13 14 15 16 15 14 14 19 20 16 14 12 14 15 14 7
10 10 10 10 10 10 9 10 10 8 9 8 8 10 9 11 16 15 13 9 10 12 11 12 13 15 17 20 15 16 17 16 15 23 26 29 27 24 15 7 8 9 7
9 9 9 10 9 9 10 10 9 9 10 8 10 9 12 13 16 17 14 7 11 11 12 13 16 15 20 22 16 14 17 15 12 12 10 15 20 18 22 15 10 11 7
8 8 8 8 8 8 9 9 9 10 9 9 11 10 11 11 11 15 16 9 10 10 11 11 10 18 20 22 24 16 19 17 16 12 11 9 9 9 7 10 10 11 10
7 6 6 6 6 6 8 8 9 9 10 9 10 10 7 7 10 13 17 14 16 10 12 11 13 22 24 25 21 24 27 24 11 10 10 10 9 8 7 9 10 10 7
6 5 7 8 7 8 9 9 9 9 9 10 10 11 11 8 8 17 19 19 19 12 10 16 25 25 27 21 24 26 23 12 11 11 10 10 8 7 6 5 6 7 4
7 9 9 9 11 9 8 7 8 8 9 10 10 11 12 12 10 10 8 9 13 13 15 14 17 21 23 20 14 14 10 10 10 10 10 8 5 6 7 7 6 7 5
7 8 9 8 9 11 9 9 9 9 10 11 10 12 13 16 12 22 21 14 12 15 17 11 10 9 10 9 9 9 8 8 9 9 8 7 6 6 6 6 6 6 5
7 6 6 7 7 8 9 11 12 15 17 21 23 19 12 24 32 30 29 28 28 28 14 12 12 10 9 10 10 9 8 10 9 7 7 5 5 5 5 5 5 6 7
5 7 6 6 7 8 9 10 12 11 18 17 19 21 25 26 29 29 29 29 28 24 11 11 11 9 9 9 9 8 8 8 7 7 6 5 5 5 7 6 7 6 6
5 7 5 6 7 7 8 9 9 10 12 11 14 19 22 26 28 30 29 25 13 11 10 10 10 9 9 8 8 8 7 6 6 7 5 5 5 5 6 6 7 6 7
5 4 5 6 6 8 8 8 9 10 10 11 10 11 14 25 27 26 25 10 11 10 10 8 7 8 7 7 6 6 7 5 5 5 5 4 5 5 5 5 6 8 7
4 6 6 6 7 7 7 8 8 9 10 9 10 11 11 14 11 12 11 13 12 11 12 9 6 6 6 5 6 5 5 5 4 4 5 4 5 5 5 6 6 7 7
4 5 7 5 5 6 7 8 8 9 9 9 9 11 24 11 10 10 10 10 10 10 11 11 11 9 6 5 5 5 5 4 4 4 4 4 4 5 5 5 6 6 6
3 4 4 5 5 6 7 7 7 8 9 9 9 10 20 8 9 9 9 9 9 9 8 10 9 9 9 9 9 7 5 5 4 3 4 4 4 5 5 5 5 5 6
3 4 4 4 4 6 6 6 7 8 9 9 9 9 9 9 9 9 9 9 9 9 9 8 9 9 9 9 8 8 8 8 7 5 4 4 4 4 5 5 5 6 6
2 3 4 4 3 4 5 6 7 7 8 8 9 9 9 9 9 10 9 9 9 9 8 8 8 11 10 10 9 8 7 8 7 7 9 4 4 3 4 4 5 6 6
2 3 3 4 5 5 5 5 6 7 7 7 8 8 8 9 9 9 8 8 8 8 9 9 8 11 13 14 13 15 11 12 10 10 6 6 5 3 1 2 3 4 6
3 3 3 4 4 5 5 6 6 7 8 8 8 8 8 8 8 9 8 8 8 8 10 7 9 14 14 10 13 16 16 14 12 13 8 6 4 3 1 1 4 4 6
Wind_Direction
85 87 88 82 80 83 86 75 48 37 30 266 242 227 246 246 231 220 222 210 215 224 218 219 228 226 227 225 220 221 227 225 253 266 261 246 208 219 226 222 226 229 234
76 81 76 74 76 71 60 49 40 25 16 339 330 294 275 262 261 254 249 230 234 235 236 231 236 231 234 236 229 225 225 227 242 265 261 251 218 214 225 217 222 227 232
81 78 72 64 63 60 52 43 37 21 14 6 332 309 284 278 273 262 260 260 252 250 245 237 241 234 241 238 234 239 234 233 236 253 264 261 222 187 224 232 227 226 230
79 77 70 59 52 47 44 40 38 26 24 7 351 325 298 293 280 274 263 267 266 262 258 254 254 243 244 243 239 240 243 245 240 249 257 259 226 200 217 224 234 229 239
73 70 61 53 45 39 35 28 23 21 10 354 336 326 315 301 295 293 278 273 265 265 261 257 255 254 246 242 244 246 244 244 245 247 253 253 234 203 204 211 236 235 235
70 64 52 44 41 34 15 5 7 351 342 324 306 297 293 266 273 284 274 276 270 264 264 265 259 250 253 255 253 253 251 251 248 246 253 249 247 240 222 217 217 202 249
67 52 41 29 31 21 2 359 353 339 330 327 324 323 315 309 297 292 280 264 267 266 271 271 269 258 250 257 261 259 258 255 254 257 253 248 256 238 224 211 205 212 223
49 39 26 18 14 5 357 354 351 344 338 327 313 304 294 289 288 290 288 277 268 267 265 265 269 269 264 266 268 268 264 260 257 254 255 264 256 251 226 214 212 220 233
34 23 13 8 1 355 349 342 333 325 314 303 295 297 291 287 292 294 294 281 276 276 270 265 262 268 267 263 267 271 272 267 259 254 256 263 267 261 235 193 205 192 206
20 7 359 357 350 341 333 324 314 306 296 295 291 284 278 279 287 293 292 280 281 282 283 280 267 262 268 270 264 262 270 271 268 265 257 262 265 262 253 205 202 211 204
4 353 348 343 330 316 312 308 304 302 296 290 287 286 275 267 276 279 279 277 279 288 290 293 289 286 282 277 267 267 267 278 272 264 261 255 249 249 231 218 213 203 203
351 333 322 320 320 324 316 313 314 304 300 302 304 303 300 297 264 276 279 274 288 283 287 289 292 294 289 287 285 270 270 277 273 265 256 252 245 233 222 212 206 206 217
321 319 335 337 337 337 333 327 323 320 315 318 317 311 311 310 308 309 304 291 296 288 282 282 283 283 286 291 287 278 270 266 266 261 260 256 245 232 208 203 188 177 167
351 354 347 342 337 337 329 325 323 320 318 316 313 307 310 306 304 304 293 292 290 284 277 275 273 275 274 274 280 279 265 263 262 266 268 260 225 206 207 186 182 169 164
358 347 345 339 333 324 320 317 310 299 300 304 300 298 302 298 297 302 301 296 294 290 293 281 272 267 278 277 280 277 272 264 263 263 261 245 218 207 200 179 174 163 161
344 340 333 321 321 314 313 311 303 298 303 302 298 294 291 290 299 303 301 300 299 297 288 282 278 274 278 286 285 282 274 270 267 260 252 230 213 190 177 170 164 180 162
319 315 316 312 316 320 318 316 316 319 314 313 311 308 305 302 304 305 303 303 301 300 280 279 276 274 279 281 278 276 277 277 275 253 235 211 194 188 175 177 175 178 165
304 296 299 308 304 305 305 307 308 311 314 318 320 315 312 317 316 312 307 308 300 293 280 273 276 283 279 276 275 275 279 277 258 253 221 203 189 184 183 178 182 184 165
325 314 315 302 301 302 301 305 304 304 302 305 313 321 334 325 322 324 327 303 297 295 295 276 269 274 276 274 273 277 277 273 264 247 226 202 196 189 192 191 186 185 175
308 307 320 317 320 320 316 314 315 316 317 319 324 329 328 335 337 342 342 347 347 341 334 314 298 287 283 280 280 278 282 267 250 238 236 216 206 202 200 195 189 183 190
326 325 327 315 322 323 323 326 325 327 326 324 322 330 338 344 337 341 340 344 343 338 336 333 327 324 317 302 292 289 281 272 264 250 234 226 205 207 209 194 190 186 185
316 321 326 329 332 333 332 322 327 327 328 329 327 329 342 343 341 339 342 341 341 341 339 335 340 348 351 346 344 330 306 294 282 257 245 226 209 207 198 195 186 186 177
333 336 332 329 332 325 330 335 332 333 330 330 332 334 338 341 341 343 342 339 341 342 345 348 348 352 355 351 351 355 347 347 339 312 282 260 232 215 202 196 188 182 174
320 311 308 311 328 329 328 325 323 324 325 328 332 334 337 338 340 341 343 339 340 345 348 349 348 353 352 359 357 352 355 354 342 343 343 304 266 239 226 205 187 183 171
283 299 307 309 309 309 308 310 312 315 319 320 325 326 329 331 334 336 340 337 337 340 345 349 349 349 355 355 352 350 357 9 5 352 353 351 344 325 275 202 165 165 152
281 280 282 285 288 295 300 304 306 309 310 311 311 313 316 320 323 325 329 331 332 331 337 341 345 349 349 348 350 352 353 10 14 6 353 356 354 352 336 174 168 161 163